[[{"header":{"parameterUnit":"m.s-1","parameterCategory":1,"la1":30.2991,"la2":30.254,"lo1":-89.0895,"lo2":-89.0444,"dy":0.0017,"dx":0.0017,"nx":28,"ny":28,"refTime":"2024-05-07T09:00:00:Z","depth":0,"parameterNumber":2,"parameterNumberName":"U-component_of_WINDS"},"data":[0,0,0,0,0,0,0,0,0,0,0,0,0,0,0,0,0,0,0,0,0,0,0,0,0,0,0,0,0,0,0,0,0,0,0,0,0,0,0,0,0,0,0,0,0,0,0,0,0,0,0,0,0,0,0,0,0,0,-0.8643,-0.8643,0,-0.8655,-0.8655,-0.8655,-0.8654,-0.8654,-0.8654,-0.8654,-0.8666,-0.8667,-0.8667,0,0,0,0,0,0,0,0,0,0,0,0,0,-0.862,-0.8621,-0.8643,-0.8643,-0.8643,-0.8655,-0.8655,-0.8655,-0.8654,-0.8654,-0.8654,-0.8654,-0.8666,-0.8667,-0.8667,0,0,0,0,0,0,0,0,0,0,0,0,0,-0.8631,-0.8621,-0.8643,-0.8644,-0.8644,-0.8654,-0.8655,-0.8655,-0.8654,-0.8654,-0.8654,-0.8654,-0.8666,-0.8667,-0.8667,-0.8677,0,0,-0.867,-0.867,0,0,0,0,0,0,0,0,-0.863,-0.8632,-0.8644,-0.8644,-0.8644,-0.8653,-0.8651,-0.8662,-0.8655,-0.8651,-0.8654,-0.8654,-0.8662,-0.8663,-0.8666,-0.8678,-0.8678,-0.867,-0.867,-0.8671,-0.8671,0,0,0,0,0,0,0,-0.863,-0.8631,-0.8647,-0.8644,-0.8644,-0.8644,-0.8646,-0.8654,-0.8658,-0.8651,-0.8651,-0.8652,-0.8662,-0.8665,-0.8666,-0.8678,-0.867,-0.867,-0.8671,-0.8671,-0.87,-0.87,0,0,0,0,0,0,-0.8628,-0.8631,-0.8647,-0.8648,-0.8637,-0.8645,-0.8646,-0.865,-0.8658,-0.8658,-0.8653,-0.8652,-0.8664,-0.8665,-0.8667,-0.8679,-0.8671,-0.8671,-0.8672,-0.8699,-0.87,-0.87,0,0,0,0,0,0,-0.8628,-0.863,-0.8646,-0.8639,-0.8641,-0.8646,-0.865,-0.8651,-0.8654,-0.8659,-0.866,-0.8655,-0.8664,-0.8666,-0.8675,-0.8679,-0.8672,-0.8672,-0.8699,-0.8699,-0.87,-0.8703,0,0,0,0,0,0,-0.8627,-0.863,-0.8633,-0.8639,-0.8642,-0.8654,-0.865,-0.8651,-0.8655,-0.8655,-0.8661,-0.8662,-0.8664,-0.8674,-0.8675,-0.868,-0.8673,-0.8699,-0.8699,-0.87,-0.8703,-0.8704,-0.8705,0,0,0,0,0,-0.8627,-0.8633,-0.8633,-0.8635,-0.8646,-0.8654,-0.8656,-0.8658,-0.8655,-0.8659,-0.8662,-0.8662,-0.8679,-0.8675,-0.8677,-0.8682,-0.8698,-0.8699,-0.87,-0.8702,-0.8703,-0.8704,0,0,0,0,0,0,-0.8627,-0.8634,-0.8634,-0.8643,-0.8648,-0.8654,-0.8659,-0.8659,-0.8665,-0.8664,-0.8667,-0.8668,-0.8677,-0.868,-0.8676,-0.8692,-0.8688,-0.8689,-0.8689,-0.8691,-0.8692,-0.8691,-0.8673,0,0,0,0,0,-0.8629,-0.8635,-0.864,-0.8648,-0.865,-0.8654,-0.8658,-0.8659,-0.8664,-0.8666,-0.8671,-0.8676,-0.8683,-0.8687,-0.8693,-0.8703,-0.8705,-0.8708,-0.8709,-0.8709,-0.871,-0.8717,-0.8718,-0.8702,-0.8702,-0.8702,0,0,-0.8631,-0.8636,-0.8639,-0.8648,-0.8652,-0.8659,-0.8656,-0.8663,-0.8668,-0.8668,-0.8676,-0.868,-0.8686,-0.8696,-0.87,-0.8699,-0.8715,-0.871,-0.8711,-0.8711,-0.8718,-0.8719,-0.8721,-0.8703,-0.8703,-0.8703,0,0,-0.864,-0.8643,-0.865,-0.8655,-0.8661,-0.8663,-0.8665,-0.8671,-0.8674,-0.8683,-0.8683,-0.8689,-0.87,-0.8705,-0.8709,-0.872,-0.872,-0.8722,-0.8727,-0.8733,-0.8734,-0.8735,-0.874,-0.8741,-0.8723,-0.8723,-0.8723,0,-0.8642,-0.8652,-0.8654,-0.8661,-0.8665,-0.8666,-0.8673,-0.8677,-0.8685,-0.8688,-0.8686,-0.8701,-0.8705,-0.8716,-0.8719,-0.8722,-0.8724,-0.8721,-0.8734,-0.8735,-0.8736,-0.874,-0.8742,-0.8723,-0.8723,-0.8723,-0.8723,0,-0.8655,-0.8662,-0.8667,-0.8674,-0.8679,-0.8686,-0.869,-0.8695,-0.8696,-0.8699,-0.8708,-0.8714,-0.8721,-0.8724,-0.8725,-0.8736,-0.8735,-0.8733,-0.873,-0.8738,-0.8742,-0.8744,-0.8723,-0.8723,-0.8723,-0.8723,0,0,-0.8664,-0.8673,-0.8675,-0.8679,-0.8686,-0.8692,-0.8699,-0.8707,-0.8711,-0.8717,-0.8723,-0.8733,-0.8732,-0.8737,-0.8738,-0.8744,-0.8753,-0.8742,-0.8742,-0.8744,-0.8766,-0.8767,-0.8769,-0.8753,-0.8753,-0.8754,-0.8766,0,-0.8673,-0.8686,-0.8689,-0.87,-0.8707,-0.8708,-0.8715,-0.872,-0.8723,-0.873,-0.8733,-0.8741,-0.8738,-0.8741,-0.8747,-0.8751,-0.8758,-0.875,-0.876,-0.876,-0.8758,-0.8771,-0.8772,-0.8783,-0.8767,-0.8767,-0.8768,0,-0.8685,-0.8692,-0.8704,-0.8711,-0.8714,-0.872,-0.8728,-0.8733,-0.874,-0.8742,-0.8747,-0.8749,-0.8757,-0.8753,-0.8765,-0.876,-0.8765,-0.8767,-0.8768,-0.8769,-0.8764,-0.8773,-0.8786,-0.8788,-0.877,-0.877,-0.877,0,-0.8691,-0.8703,-0.8712,-0.8715,-0.8723,-0.8728,-0.8731,-0.8738,-0.8742,-0.8749,-0.8752,-0.876,-0.8764,-0.8771,-0.8774,-0.8771,-0.8786,-0.8782,-0.8788,-0.8788,-0.8792,-0.8791,-0.8806,-0.8794,-0.8794,-0.8794,-0.8794,0,-0.8701,-0.8709,-0.8714,-0.872,-0.8729,-0.8732,-0.8741,-0.8744,-0.875,-0.8757,-0.8758,-0.8765,-0.8769,-0.8776,-0.8779,-0.8789,-0.8791,-0.8793,-0.8794,-0.8793,-0.8793,-0.8796,-0.8795,-0.8794,-0.8794,-0.8794,-0.8794,0,-0.8709,-0.8713,-0.8723,-0.873,-0.8732,-0.8739,-0.8745,-0.8751,-0.8754,-0.8763,-0.8765,-0.8771,-0.8779,-0.8784,-0.8794,-0.8796,-0.8807,-0.8808,-0.8805,-0.8806,-0.8811,-0.8811,-0.8829,-0.8832,-0.8818,-0.8818,-0.8818,0,-0.8715,-0.8721,-0.8729,-0.8734,-0.8738,-0.8745,-0.875,-0.8754,-0.8759,-0.8767,-0.8772,-0.8781,-0.8788,-0.8802,-0.8807,-0.8815,-0.8816,-0.8821,-0.8817,-0.8816,-0.8816,-0.8816,-0.8817,-0.8822,-0.8822,-0.8822,-0.8823,0,-0.8726,-0.8728,-0.8735,-0.8743,-0.8749,-0.8755,-0.8761,-0.8765,-0.877,-0.8776,-0.8784,-0.879,-0.8801,-0.881,-0.8819,-0.8823,-0.8824,-0.8824,-0.8826,-0.8825,-0.8824,-0.8825,-0.8808,-0.8824,-0.8823,-0.8823,-0.8823,-0.8823,-0.8734,-0.8739,-0.8746,-0.8754,-0.8759,-0.8765,-0.8771,-0.8776,-0.8783,-0.8792,-0.8794,-0.8803,-0.8811,-0.8823,-0.8827,-0.8835,-0.8834,-0.8837,-0.8837,-0.8838,-0.8838,-0.8823,-0.8837,-0.8837,-0.8837,-0.8837,-0.8837,0,-0.8745,-0.875,-0.8757,-0.8766,-0.8772,-0.8773,-0.878,-0.8785,-0.8793,-0.88,-0.8807,-0.8818,-0.8826,-0.8832,-0.8841,-0.8846,-0.8847,-0.8849,-0.8848,-0.885,-0.8839,-0.8836,-0.8848,-0.8848,-0.8848,-0.8848,-0.8848,-0.8848,-0.8752,-0.8762,-0.8764,-0.8777,-0.8782,-0.8791,-0.8795,-0.8801,-0.8806,-0.8818,-0.8825,-0.8829,-0.8835,-0.8845,-0.8853,-0.8855,-0.8858,-0.886,-0.8862,-0.8851,-0.885,-0.8849,-0.8847,-0.8861,-0.8861,-0.8872,-0.8872,-0.8872]},{"header":{"parameterUnit":"m.s-1","parameterCategory":1,"la1":30.2991,"la2":30.254,"lo1":-89.0895,"lo2":-89.0444,"dy":0.0017,"dx":0.0017,"nx":28,"ny":28,"refTime":"2024-05-07T09:00:00:Z","depth":0,"parameterNumber":3,"parameterNumberName":"V-component_of_WINDS"},"data":[0,0,0,0,0,0,0,0,0,0,0,0,0,0,0,0,0,0,0,0,0,0,0,0,0,0,0,0,0,0,0,0,0,0,0,0,0,0,0,0,0,0,0,0,0,0,0,0,0,0,0,0,0,0,0,0,0,0,5.368,5.368,0,5.3695,5.3695,5.3695,5.3631,5.3629,5.3627,5.3626,5.3639,5.3641,5.3643,0,0,0,0,0,0,0,0,0,0,0,0,0,5.3594,5.3596,5.368,5.368,5.368,5.3695,5.3695,5.3695,5.3631,5.3629,5.3627,5.3625,5.3638,5.364,5.3643,0,0,0,0,0,0,0,0,0,0,0,0,0,5.3623,5.3597,5.368,5.365,5.3648,5.3695,5.3695,5.3695,5.3632,5.3629,5.3626,5.3624,5.3637,5.364,5.3643,5.3718,0,0,5.3653,5.3654,0,0,0,0,0,0,0,0,5.3621,5.3626,5.3655,5.3652,5.365,5.3658,5.3669,5.3703,5.3633,5.3638,5.3626,5.3622,5.3647,5.3649,5.3658,5.3719,5.3719,5.3653,5.3655,5.3656,5.3657,0,0,0,0,0,0,0,5.3619,5.3625,5.3686,5.3655,5.3652,5.3636,5.3637,5.3675,5.3658,5.3637,5.3633,5.3635,5.3645,5.3655,5.3658,5.372,5.3653,5.3656,5.3658,5.3659,5.3842,5.3845,0,0,0,0,0,0,5.3621,5.3624,5.3685,5.3686,5.3628,5.3639,5.364,5.3658,5.3657,5.3655,5.3638,5.3632,5.3651,5.3654,5.3658,5.3746,5.3656,5.3659,5.3661,5.3839,5.3843,5.3846,0,0,0,0,0,0,5.362,5.3628,5.3685,5.3654,5.366,5.3644,5.3664,5.366,5.367,5.3658,5.3654,5.3651,5.3649,5.3654,5.3704,5.3745,5.366,5.3663,5.3836,5.384,5.3845,5.3922,0,0,0,0,0,0,5.3618,5.3627,5.3656,5.3655,5.3662,5.3731,5.3667,5.3662,5.3676,5.3669,5.3669,5.3667,5.3647,5.37,5.3707,5.3748,5.3666,5.3832,5.3838,5.3843,5.3916,5.3929,5.394,0,0,0,0,0,5.3615,5.3677,5.3658,5.3666,5.3698,5.3733,5.3737,5.3714,5.3679,5.3708,5.37,5.3667,5.374,5.3705,5.3713,5.3756,5.3829,5.3836,5.3843,5.3911,5.3926,5.394,0,0,0,0,0,0,5.3683,5.3676,5.3655,5.3719,5.3728,5.3723,5.3758,5.3732,5.3749,5.3742,5.3712,5.3713,5.3768,5.3767,5.3728,5.3828,5.3778,5.3787,5.3827,5.3842,5.3854,5.3853,5.3668,0,0,0,0,0,5.3706,5.3737,5.3728,5.3785,5.3791,5.3774,5.3789,5.377,5.3777,5.378,5.3776,5.3784,5.3808,5.3825,5.3847,5.3915,5.3914,5.3949,5.3961,5.3971,5.3978,5.4014,5.403,5.3868,5.3868,5.3868,0,0,5.3753,5.3753,5.3774,5.3799,5.3804,5.3835,5.3777,5.3813,5.3836,5.3785,5.3833,5.383,5.3836,5.3896,5.3922,5.3897,5.4023,5.3979,5.3987,5.399,5.4023,5.4038,5.4052,5.3873,5.3872,5.3871,0,0,5.3854,5.3858,5.3906,5.3911,5.3919,5.3907,5.3919,5.3918,5.3914,5.3962,5.3924,5.3951,5.3994,5.4,5.4009,5.4113,5.4083,5.4121,5.4183,5.4219,5.4232,5.4243,5.428,5.4294,5.4128,5.4129,5.4129,0,5.3911,5.3958,5.3933,5.3972,5.3984,5.394,5.3988,5.3995,5.4009,5.4018,5.3989,5.4043,5.4044,5.4104,5.413,5.4138,5.415,5.412,5.4232,5.4243,5.4253,5.4288,5.4302,5.4133,5.4133,5.4132,5.4132,0,5.4028,5.4061,5.4099,5.4115,5.4131,5.4174,5.4155,5.4174,5.4154,5.4145,5.4194,5.4194,5.4215,5.4228,5.4208,5.4286,5.427,5.4237,5.4186,5.4273,5.4306,5.4319,5.414,5.4138,5.4137,5.4136,0,0,5.4173,5.4175,5.4189,5.4196,5.4201,5.4225,5.4266,5.4288,5.4305,5.4316,5.4349,5.4387,5.4357,5.4367,5.4347,5.4379,5.4461,5.4342,5.4342,5.4364,5.4546,5.4571,5.4587,5.4441,5.4444,5.4446,5.4546,0,5.4273,5.4344,5.4322,5.4393,5.4423,5.4382,5.4418,5.4424,5.4417,5.4441,5.4432,5.446,5.4418,5.4424,5.4453,5.4445,5.4497,5.4437,5.4472,5.4473,5.4471,5.4604,5.463,5.4724,5.4558,5.456,5.4562,0,5.4399,5.4416,5.449,5.449,5.4502,5.4535,5.4552,5.4576,5.4582,5.4575,5.4586,5.4561,5.46,5.4549,5.4603,5.4563,5.4575,5.4574,5.4577,5.4579,5.4523,5.461,5.4754,5.4768,5.4581,5.458,5.4578,0,5.4498,5.4539,5.4589,5.4596,5.4597,5.4621,5.4622,5.4626,5.464,5.4655,5.4664,5.4684,5.4695,5.471,5.469,5.4655,5.4747,5.4694,5.4741,5.4742,5.4763,5.4762,5.4911,5.4771,5.4771,5.477,5.477,0,5.4611,5.4659,5.4633,5.4664,5.4715,5.469,5.4741,5.4737,5.4741,5.477,5.4735,5.4763,5.4735,5.476,5.4744,5.4791,5.4796,5.4791,5.4786,5.4794,5.4795,5.4802,5.4795,5.4774,5.4773,5.4772,5.4772,0,5.4731,5.4716,5.4767,5.4764,5.4765,5.4803,5.48,5.4827,5.4818,5.4855,5.4862,5.4846,5.4874,5.4856,5.4883,5.4873,5.4934,5.492,5.4932,5.4928,5.4977,5.4973,5.5136,5.5156,5.5003,5.5004,5.5006,0,5.4804,5.484,5.4841,5.4858,5.4862,5.489,5.4905,5.488,5.4897,5.4907,5.4934,5.4958,5.4977,5.5022,5.5013,5.5034,5.502,5.5076,5.5023,5.503,5.5021,5.502,5.5023,5.5087,5.5089,5.509,5.5091,0,5.4937,5.4928,5.495,5.4971,5.4989,5.5004,5.5015,5.5031,5.5007,5.5027,5.5055,5.507,5.5098,5.5123,5.514,5.514,5.5112,5.5108,5.512,5.5129,5.5134,5.5132,5.4961,5.5104,5.5103,5.5102,5.5101,5.5101,5.5036,5.5065,5.5071,5.5097,5.5103,5.5115,5.5141,5.5135,5.5158,5.518,5.5164,5.5197,5.5202,5.5222,5.5227,5.5252,5.5229,5.5247,5.5251,5.5256,5.5263,5.513,5.5255,5.5255,5.5254,5.5254,5.5254,0,5.5167,5.5168,5.5193,5.5211,5.5231,5.5203,5.5214,5.5233,5.5263,5.5271,5.529,5.5322,5.5346,5.5339,5.536,5.5381,5.5369,5.5388,5.5386,5.5387,5.5282,5.5269,5.5398,5.5398,5.5398,5.5397,5.5397,5.5397,5.5237,5.5286,5.5277,5.5328,5.5329,5.5362,5.5371,5.5381,5.5387,5.5425,5.5445,5.544,5.5442,5.5462,5.5483,5.548,5.549,5.5513,5.5506,5.5408,5.5394,5.538,5.5369,5.5516,5.5516,5.5609,5.561,5.561]}]]